Time,TemperatureF,DewpointF,PressureIn,WindDirection,WindDirectionDegrees,WindSpeedMPH,WindSpeedGustMPH,Humidity,HourlyPrecipIn,Conditions,Clouds,dailyrainin,SolarRadiationWatts/m^2,SoftwareType,DateUTC
2013-07-21 00:02:00,66.0,55.0,-100.00,ESE,117,4.0,9.0,68,0.00,,,0.00,0.000000,,2013-07-21 05:02:00,
2013-07-21 00:11:00,66.0,55.0,-100.00,ESE,117,4.0,9.0,68,0.00,,,0.00,0.000000,,2013-07-21 05:11:00,
2013-07-21 00:32:00,65.0,54.0,-100.00,ESE,104,3.0,10.0,68,0.00,,,0.00,0.000000,,2013-07-21 05:32:00,
2013-07-21 00:42:00,65.0,54.0,-100.00,ESE,104,3.0,10.0,68,0.00,,,0.00,0.000000,,2013-07-21 05:42:00,
2013-07-21 00:52:00,65.0,54.0,-100.00,ESE,104,3.0,10.0,68,0.00,,,0.00,0.000000,,2013-07-21 05:52:00,
2013-07-21 01:01:00,65.0,54.0,-100.00,ESE,104,3.0,10.0,68,0.00,,,0.00,0.000000,,2013-07-21 06:01:00,
2013-07-21 01:11:00,65.0,54.0,-100.00,ESE,104,3.0,10.0,68,0.00,,,0.00,0.000000,,2013-07-21 06:11:00,
2013-07-21 01:32:00,63.0,56.0,-100.00,SE,140,1.0,7.0,78,0.00,,,0.00,0.000000,,2013-07-21 06:32:00,
2013-07-21 01:43:00,63.0,56.0,-100.00,SE,140,1.0,7.0,78,0.00,,,0.00,0.000000,,2013-07-21 06:43:00,
2013-07-21 01:53:00,63.0,56.0,-100.00,SE,140,1.0,7.0,78,0.00,,,0.00,0.000000,,2013-07-21 06:53:00,
2013-07-21 02:01:00,63.0,56.0,-100.00,SE,140,1.0,7.0,78,0.00,,,0.00,0.000000,,2013-07-21 07:01:00,
2013-07-21 02:11:00,63.0,56.0,-100.00,SE,140,1.0,7.0,78,0.00,,,0.00,0.000000,,2013-07-21 07:11:00,
2013-07-21 02:43:00,62.0,56.0,-100.00,East,100,2.0,7.0,80,0.00,,,0.00,0.000000,,2013-07-21 07:43:00,
2013-07-21 02:53:00,62.0,56.0,-100.00,East,100,2.0,7.0,80,0.00,,,0.00,0.000000,,2013-07-21 07:53:00,
2013-07-21 03:01:00,62.0,56.0,-100.00,East,100,2.0,7.0,80,0.00,,,0.00,0.000000,,2013-07-21 08:01:00,
2013-07-21 03:11:00,62.0,56.0,-100.00,East,100,2.0,7.0,80,0.00,,,0.00,0.000000,,2013-07-21 08:11:00,
2013-07-21 03:12:00,60.0,57.0,-100.00,ENE,65,1.0,8.0,90,0.00,,,-99.99,0.000000,,2013-07-21 08:12:00,
2013-07-21 03:43:00,60.0,57.0,-100.00,ENE,65,1.0,8.0,90,0.00,,,-99.99,0.000000,,2013-07-21 08:43:00,
2013-07-21 03:52:00,60.0,57.0,-100.00,ENE,65,1.0,8.0,90,0.00,,,-99.99,0.000000,,2013-07-21 08:52:00,
2013-07-21 04:02:00,60.0,57.0,-100.00,ENE,65,1.0,8.0,90,0.00,,,-99.99,0.000000,,2013-07-21 09:02:00,
2013-07-21 04:32:00,60.0,57.0,-100.00,East,90,1.0,4.0,91,0.00,,,0.00,0.000000,,2013-07-21 09:32:00,
2013-07-21 04:42:00,60.0,57.0,-100.00,East,90,1.0,4.0,91,0.00,,,0.00,0.000000,,2013-07-21 09:42:00,
2013-07-21 04:52:00,60.0,57.0,-100.00,East,90,1.0,4.0,91,0.00,,,0.00,0.000000,,2013-07-21 09:52:00,
2013-07-21 05:02:00,60.0,57.0,-100.00,East,90,1.0,4.0,91,0.00,,,0.00,0.000000,,2013-07-21 10:02:00,
2013-07-21 05:11:00,60.0,57.0,-100.00,East,90,1.0,4.0,91,0.00,,,0.00,0.000000,,2013-07-21 10:11:00,
2013-07-21 05:12:00,58.0,55.0,-100.00,ENE,63,3.0,6.0,89,0.00,,,0.00,0.000000,,2013-07-21 10:12:00,
2013-07-21 05:32:00,58.0,55.0,-100.00,ENE,63,3.0,6.0,89,0.00,,,0.00,0.000000,,2013-07-21 10:32:00,
2013-07-21 05:43:00,58.0,55.0,-100.00,ENE,63,3.0,6.0,89,0.00,,,0.00,0.000000,,2013-07-21 10:43:00,
2013-07-21 05:52:00,58.0,55.0,-100.00,ENE,63,3.0,6.0,89,0.00,,,0.00,0.000000,,2013-07-21 10:52:00,
2013-07-21 06:02:00,58.0,55.0,-100.00,ENE,63,3.0,6.0,89,0.00,,,0.00,0.000000,,2013-07-21 11:02:00,
2013-07-21 06:33:00,58.0,55.0,-100.00,NE,48,1.0,5.0,91,0.00,,,0.00,9.000000,,2013-07-21 11:33:00,
2013-07-21 06:43:00,58.0,55.0,-100.00,NE,48,1.0,5.0,91,0.00,,,0.00,9.000000,,2013-07-21 11:43:00,
2013-07-21 06:52:00,58.0,55.0,-100.00,NE,48,1.0,5.0,91,0.00,,,0.00,9.000000,,2013-07-21 11:52:00,
2013-07-21 07:01:00,58.0,55.0,-100.00,NE,48,1.0,5.0,91,0.00,,,0.00,9.000000,,2013-07-21 12:01:00,
2013-07-21 07:11:00,58.0,55.0,-100.00,NE,48,1.0,5.0,91,0.00,,,0.00,9.000000,,2013-07-21 12:11:00,
2013-07-21 07:12:00,62.0,56.0,-100.00,NE,48,2.0,6.0,81,0.00,,,0.00,105.000000,,2013-07-21 12:12:00,
2013-07-21 07:32:00,62.0,56.0,-100.00,NE,48,2.0,6.0,81,0.00,,,0.00,105.000000,,2013-07-21 12:32:00,
2013-07-21 07:43:00,62.0,56.0,-100.00,NE,48,2.0,6.0,81,0.00,,,0.00,105.000000,,2013-07-21 12:43:00,
2013-07-21 07:53:00,62.0,56.0,-100.00,NE,48,2.0,6.0,81,0.00,,,0.00,105.000000,,2013-07-21 12:53:00,
2013-07-21 08:01:00,62.0,56.0,-100.00,NE,48,2.0,6.0,81,0.00,,,0.00,105.000000,,2013-07-21 13:01:00,
2013-07-21 08:12:00,65.0,56.0,-100.00,East,98,3.0,9.0,73,0.00,,,0.00,208.000000,,2013-07-21 13:12:00,
2013-07-21 08:33:00,65.0,56.0,-100.00,East,98,3.0,9.0,73,0.00,,,0.00,208.000000,,2013-07-21 13:33:00,
2013-07-21 08:43:00,65.0,56.0,-100.00,East,98,3.0,9.0,73,0.00,,,0.00,208.000000,,2013-07-21 13:43:00,
2013-07-21 08:53:00,65.0,56.0,-100.00,East,98,3.0,9.0,73,0.00,,,0.00,208.000000,,2013-07-21 13:53:00,
2013-07-21 09:01:00,65.0,56.0,-100.00,East,98,3.0,9.0,73,0.00,,,0.00,208.000000,,2013-07-21 14:01:00,
2013-07-21 09:32:00,69.0,57.0,-100.00,East,92,4.0,10.0,65,0.00,,,0.00,362.000000,,2013-07-21 14:32:00,
2013-07-21 09:43:00,69.0,57.0,-100.00,East,92,4.0,10.0,65,0.00,,,0.00,362.000000,,2013-07-21 14:43:00,
2013-07-21 09:53:00,69.0,57.0,-100.00,East,92,4.0,10.0,65,0.00,,,0.00,362.000000,,2013-07-21 14:53:00,
2013-07-21 10:02:00,69.0,57.0,-100.00,East,92,4.0,10.0,65,0.00,,,0.00,362.000000,,2013-07-21 15:02:00,
2013-07-21 10:11:00,69.0,57.0,-100.00,East,92,4.0,10.0,65,0.00,,,0.00,362.000000,,2013-07-21 15:11:00,
2013-07-21 10:43:00,71.0,55.0,-100.00,ENE,76,5.0,10.0,58,0.00,,,0.00,495.000000,,2013-07-21 15:43:00,
2013-07-21 10:53:00,71.0,55.0,-100.00,ENE,76,5.0,10.0,58,0.00,,,0.00,495.000000,,2013-07-21 15:53:00,
2013-07-21 11:01:00,71.0,55.0,-100.00,ENE,76,5.0,10.0,58,0.00,,,0.00,495.000000,,2013-07-21 16:01:00,
2013-07-21 11:11:00,71.0,55.0,-100.00,ENE,76,5.0,10.0,58,0.00,,,0.00,495.000000,,2013-07-21 16:11:00,
2013-07-21 11:32:00,72.0,53.0,-100.00,East,89,4.0,10.0,52,0.00,,,0.00,528.000000,,2013-07-21 16:32:00,
2013-07-21 11:43:00,72.0,53.0,-100.00,East,89,4.0,10.0,52,0.00,,,0.00,528.000000,,2013-07-21 16:43:00,
2013-07-21 11:52:00,72.0,53.0,-100.00,East,89,4.0,10.0,52,0.00,,,0.00,528.000000,,2013-07-21 16:52:00,
2013-07-21 12:02:00,72.0,53.0,-100.00,East,89,4.0,10.0,52,0.00,,,0.00,528.000000,,2013-07-21 17:02:00,
2013-07-21 12:11:00,72.0,53.0,-100.00,East,89,4.0,10.0,52,0.00,,,0.00,528.000000,,2013-07-21 17:11:00,
2013-07-21 12:33:00,72.0,54.0,-100.00,East,93,4.0,8.0,54,0.00,,,0.00,389.000000,,2013-07-21 17:33:00,
2013-07-21 12:43:00,72.0,54.0,-100.00,East,93,4.0,8.0,54,0.00,,,0.00,389.000000,,2013-07-21 17:43:00,
2013-07-21 12:53:00,72.0,54.0,-100.00,East,93,4.0,8.0,54,0.00,,,0.00,389.000000,,2013-07-21 17:53:00,
2013-07-21 13:01:00,72.0,54.0,-100.00,East,93,4.0,8.0,54,0.00,,,0.00,389.000000,,2013-07-21 18:01:00,
2013-07-21 13:11:00,72.0,54.0,-100.00,East,93,4.0,8.0,54,0.00,,,0.00,389.000000,,2013-07-21 18:11:00,
2013-07-21 13:43:00,69.0,54.0,-100.00,ENE,57,3.0,9.0,59,0.00,,,0.00,206.000000,,2013-07-21 18:43:00,
2013-07-21 13:52:00,69.0,54.0,-100.00,ENE,57,3.0,9.0,59,0.00,,,0.00,206.000000,,2013-07-21 18:52:00,
2013-07-21 14:01:00,69.0,54.0,-100.00,ENE,57,3.0,9.0,59,0.00,,,0.00,206.000000,,2013-07-21 19:01:00,
2013-07-21 14:11:00,69.0,54.0,-100.00,ENE,57,3.0,9.0,59,0.00,,,0.00,206.000000,,2013-07-21 19:11:00,
2013-07-21 14:12:00,63.0,61.0,-100.00,East,81,2.0,8.0,94,0.10,,,0.10,13.000000,,2013-07-21 19:12:00,
2013-07-21 14:32:00,63.0,61.0,-100.00,East,81,2.0,8.0,94,0.10,,,0.10,13.000000,,2013-07-21 19:32:00,
2013-07-21 14:42:00,63.0,61.0,-100.00,East,81,2.0,8.0,94,0.10,,,0.10,13.000000,,2013-07-21 19:42:00,
2013-07-21 14:52:00,63.0,61.0,-100.00,East,81,2.0,8.0,94,0.10,,,0.10,13.000000,,2013-07-21 19:52:00,
2013-07-21 15:01:00,63.0,61.0,-100.00,East,81,2.0,8.0,94,0.10,,,0.10,13.000000,,2013-07-21 20:01:00,
2013-07-21 15:32:00,63.0,62.0,-100.00,West,259,2.0,5.0,95,0.09,,,0.19,18.000000,,2013-07-21 20:32:00,
2013-07-21 15:43:00,63.0,62.0,-100.00,West,259,2.0,5.0,95,0.09,,,0.19,18.000000,,2013-07-21 20:43:00,
2013-07-21 15:52:00,63.0,62.0,-100.00,West,259,2.0,5.0,95,0.09,,,0.19,18.000000,,2013-07-21 20:52:00,
2013-07-21 16:01:00,63.0,62.0,-100.00,West,259,2.0,5.0,95,0.09,,,0.19,18.000000,,2013-07-21 21:01:00,
2013-07-21 16:11:00,63.0,62.0,-100.00,West,259,2.0,5.0,95,0.09,,,0.19,18.000000,,2013-07-21 21:11:00,
2013-07-21 16:43:00,62.0,61.0,-100.00,SE,124,2.0,4.0,96,0.18,,,-99.99,14.000000,,2013-07-21 21:43:00,
2013-07-21 16:52:00,62.0,61.0,-100.00,SE,124,2.0,4.0,96,0.18,,,-99.99,14.000000,,2013-07-21 21:52:00,
2013-07-21 17:01:00,62.0,61.0,-100.00,SE,124,2.0,4.0,96,0.18,,,-99.99,14.000000,,2013-07-21 22:01:00,
2013-07-21 17:11:00,62.0,61.0,-100.00,SE,124,2.0,4.0,96,0.18,,,-99.99,14.000000,,2013-07-21 22:11:00,
2013-07-21 17:32:00,63.0,62.0,-100.00,NE,55,1.0,6.0,96,0.05,,,0.42,53.000000,,2013-07-21 22:32:00,
2013-07-21 17:43:00,63.0,62.0,-100.00,NE,55,1.0,6.0,96,0.05,,,0.42,53.000000,,2013-07-21 22:43:00,
2013-07-21 17:52:00,63.0,62.0,-100.00,NE,55,1.0,6.0,96,0.05,,,0.42,53.000000,,2013-07-21 22:52:00,
2013-07-21 18:02:00,63.0,62.0,-100.00,NE,55,1.0,6.0,96,0.05,,,0.42,53.000000,,2013-07-21 23:02:00,
2013-07-21 18:11:00,63.0,62.0,-100.00,NE,55,1.0,6.0,96,0.05,,,0.42,53.000000,,2013-07-21 23:11:00,
2013-07-21 18:32:00,65.0,64.0,-100.00,ENE,76,2.0,6.0,96,0.00,,,-99.99,110.000000,,2013-07-21 23:32:00,
2013-07-21 18:43:00,65.0,64.0,-100.00,ENE,76,2.0,6.0,96,0.00,,,-99.99,110.000000,,2013-07-21 23:43:00,
2013-07-21 18:53:00,65.0,64.0,-100.00,ENE,76,2.0,6.0,96,0.00,,,-99.99,110.000000,,2013-07-21 23:53:00,
2013-07-21 19:01:00,65.0,64.0,-100.00,ENE,76,2.0,6.0,96,0.00,,,-99.99,110.000000,,2013-07-22 00:01:00,
2013-07-21 19:11:00,65.0,64.0,-100.00,ENE,76,2.0,6.0,96,0.00,,,-99.99,110.000000,,2013-07-22 00:11:00,
2013-07-21 19:42:00,65.0,64.0,-100.00,NE,50,1.0,6.0,96,0.00,,,0.42,61.000000,,2013-07-22 00:42:00,
2013-07-21 19:53:00,65.0,64.0,-100.00,NE,50,1.0,6.0,96,0.00,,,0.42,61.000000,,2013-07-22 00:53:00,
2013-07-21 20:02:00,65.0,64.0,-100.00,NE,50,1.0,6.0,96,0.00,,,0.42,61.000000,,2013-07-22 01:02:00,
2013-07-21 20:11:00,65.0,64.0,-100.00,NE,50,1.0,6.0,96,0.00,,,0.42,61.000000,,2013-07-22 01:11:00,
2013-07-21 20:32:00,65.0,64.0,-100.00,NE,55,1.0,4.0,96,0.00,,,0.42,28.000000,,2013-07-22 01:32:00,
2013-07-21 20:42:00,65.0,64.0,-100.00,NE,55,1.0,4.0,96,0.00,,,0.42,28.000000,,2013-07-22 01:42:00,
2013-07-21 20:52:00,65.0,64.0,-100.00,NE,55,1.0,4.0,96,0.00,,,0.42,28.000000,,2013-07-22 01:52:00,
2013-07-21 21:02:00,65.0,64.0,-100.00,NE,55,1.0,4.0,96,0.00,,,0.42,28.000000,,2013-07-22 02:02:00,
2013-07-21 21:11:00,65.0,64.0,-100.00,NE,55,1.0,4.0,96,0.00,,,0.42,28.000000,,2013-07-22 02:11:00,
2013-07-21 21:12:00,64.0,63.0,-100.00,ENE,64,0.0,2.0,96,0.00,,,0.42,6.000000,,2013-07-22 02:12:00,
2013-07-21 21:32:00,64.0,63.0,-100.00,ENE,64,0.0,2.0,96,0.00,,,0.42,6.000000,,2013-07-22 02:32:00,
2013-07-21 21:43:00,64.0,63.0,-100.00,ENE,64,0.0,2.0,96,0.00,,,0.42,6.000000,,2013-07-22 02:43:00,
2013-07-21 21:52:00,64.0,63.0,-100.00,ENE,64,0.0,2.0,96,0.00,,,0.42,6.000000,,2013-07-22 02:52:00,
2013-07-21 22:01:00,64.0,63.0,-100.00,ENE,64,0.0,2.0,96,0.00,,,0.42,6.000000,,2013-07-22 03:01:00,
2013-07-21 22:12:00,62.0,61.0,-100.00,ESE,114,0.0,2.0,96,0.00,,,0.42,0.000000,,2013-07-22 03:12:00,
2013-07-21 22:33:00,62.0,61.0,-100.00,ESE,114,0.0,2.0,96,0.00,,,0.42,0.000000,,2013-07-22 03:33:00,
2013-07-21 22:43:00,62.0,61.0,-100.00,ESE,114,0.0,2.0,96,0.00,,,0.42,0.000000,,2013-07-22 03:43:00,
2013-07-21 22:53:00,62.0,61.0,-100.00,ESE,114,0.0,2.0,96,0.00,,,0.42,0.000000,,2013-07-22 03:53:00,
2013-07-21 23:01:00,62.0,61.0,-100.00,ESE,114,0.0,2.0,96,0.00,,,0.42,0.000000,,2013-07-22 04:01:00,
2013-07-21 23:33:00,61.0,60.0,-100.00,North,359,0.0,1.0,96,0.00,,,0.42,0.000000,,2013-07-22 04:33:00,
2013-07-21 23:43:00,61.0,60.0,-100.00,North,359,0.0,1.0,96,0.00,,,0.42,0.000000,,2013-07-22 04:43:00,